TimeEDT,TemperatureF,Dew PointF,Humidity,Sea Level PressureIn,VisibilityMPH,Wind Direction,Wind SpeedMPH,Gust SpeedMPH,PrecipitationIn,Events,Conditions,WindDirDegrees,DateUTC
12:53 AM,59.0,30.9,35,29.91,10.0,Variable,4.6,-,N/A,,Overcast,0,2013-04-24 04:53:00
1:53 AM,57.0,34.0,42,29.88,10.0,Variable,5.8,-,N/A,,Scattered Clouds,0,2013-04-24 05:53:00
2:53 AM,55.9,36.0,47,29.87,10.0,Variable,3.5,-,N/A,,Partly Cloudy,0,2013-04-24 06:53:00
3:53 AM,55.9,37.0,49,29.86,10.0,SSE,5.8,-,N/A,,Mostly Cloudy,160,2013-04-24 07:53:00
4:53 AM,55.9,39.9,55,29.86,10.0,South,5.8,-,0.00,Rain,Light Rain,180,2013-04-24 08:53:00
5:25 AM,51.8,44.6,76,29.87,2.0,Variable,6.9,-,0.07,Rain,Rain,0,2013-04-24 09:25:00
5:38 AM,51.8,44.6,76,29.86,5.0,Variable,3.5,-,0.09,Rain,Light Rain,0,2013-04-24 09:38:00
6:53 AM,50.0,46.0,86,29.84,5.0,Variable,4.6,-,0.02,Rain,Light Rain,0,2013-04-24 10:53:00
7:30 AM,50.0,46.4,87,29.84,1.8,Variable,5.8,-,0.04,Rain,Rain,0,2013-04-24 11:30:00
7:40 AM,50.0,46.4,87,29.84,3.0,Variable,5.8,-,0.04,Rain,Light Rain,0,2013-04-24 11:40:00
7:53 AM,51.1,46.9,86,29.83,4.0,Variable,5.8,-,0.05,Rain,Light Rain,0,2013-04-24 11:53:00
8:53 AM,54.0,48.9,83,29.80,9.0,SSE,8.1,-,0.00,,Mostly Cloudy,150,2013-04-24 12:53:00
9:53 AM,57.0,48.0,72,29.78,10.0,South,8.1,16.1,0.00,,Overcast,180,2013-04-24 13:53:00
10:19 AM,57.2,48.2,72,29.79,10.0,South,12.7,-,0.00,Rain,Light Rain,180,2013-04-24 14:19:00
10:49 AM,57.2,48.2,72,29.77,10.0,South,11.5,16.1,0.00,,Overcast,180,2013-04-24 14:49:00
10:53 AM,57.0,48.9,74,29.76,10.0,Variable,5.8,18.4,0.00,,Overcast,0,2013-04-24 14:53:00
11:51 AM,55.4,50.0,82,29.78,1.8,SSW,16.1,24.2,0.03,Rain,Rain,200,2013-04-24 15:51:00
11:53 AM,55.9,50.0,80,29.77,1.5,South,12.7,24.2,0.03,Rain,Rain,190,2013-04-24 15:53:00
12:02 PM,55.4,50.0,82,29.76,3.0,Variable,6.9,17.3,0.02,Rain,Light Rain,0,2013-04-24 16:02:00
12:12 PM,55.4,51.8,88,29.73,2.5,Variable,4.6,-,0.03,Rain,Rain,0,2013-04-24 16:12:00
12:21 PM,55.4,51.8,88,29.75,5.0,South,10.4,17.3,0.03,Rain,Light Rain,190,2013-04-24 16:21:00
12:42 PM,55.4,51.8,88,29.75,6.0,South,16.1,21.9,0.03,Rain,Light Rain,190,2013-04-24 16:42:00
12:53 PM,55.9,52.0,87,29.73,2.5,South,10.4,19.6,0.04,Rain,Rain,190,2013-04-24 16:53:00
1:04 PM,57.2,51.8,82,29.73,5.0,SSW,9.2,-,0.01,Rain,Light Rain,200,2013-04-24 17:04:00
1:43 PM,55.4,53.6,94,29.73,2.0,SSW,9.2,-,0.03,Rain,Light Rain,200,2013-04-24 17:43:00
1:46 PM,55.4,53.6,94,29.73,2.0,South,9.2,-,0.03,Rain,Light Rain,190,2013-04-24 17:46:00
1:53 PM,55.9,53.1,90,29.73,2.0,SSW,11.5,-,0.04,Rain,Light Rain,200,2013-04-24 17:53:00
1:57 PM,55.4,53.6,94,29.73,1.8,SSW,12.7,18.4,0.01,Rain,Rain,200,2013-04-24 17:57:00
2:07 PM,55.4,53.6,94,29.73,1.5,SSW,16.1,25.3,0.04,Rain,Rain,210,2013-04-24 18:07:00
2:12 PM,55.4,53.6,94,29.70,1.2,SSW,13.8,25.3,0.05,Rain,Rain,210,2013-04-24 18:12:00
2:20 PM,57.2,53.6,88,29.71,2.0,SSW,13.8,21.9,0.06,Rain,Light Rain,200,2013-04-24 18:20:00
2:40 PM,57.2,53.6,88,29.72,2.0,SSW,13.8,21.9,0.09,Rain,Rain,210,2013-04-24 18:40:00
2:49 PM,57.2,53.6,88,29.72,1.5,SSW,12.7,23.0,0.12,Rain,Rain,210,2013-04-24 18:49:00
2:53 PM,57.0,54.0,89,29.71,1.0,SSW,13.8,24.2,0.14,Rain,Heavy Rain,210,2013-04-24 18:53:00
3:04 PM,57.2,53.6,88,29.72,3.0,SSW,12.7,21.9,0.02,Rain,Light Rain,210,2013-04-24 19:04:00
3:16 PM,57.2,53.6,88,29.70,6.0,SSW,11.5,18.4,0.02,Rain,Light Rain,200,2013-04-24 19:16:00
3:20 PM,57.2,53.6,88,29.70,6.0,SSW,13.8,21.9,0.02,Rain,Light Rain,200,2013-04-24 19:20:00
3:35 PM,57.2,53.6,88,29.69,3.0,SSW,13.8,24.2,0.04,Rain,Light Rain,200,2013-04-24 19:35:00
3:53 PM,44.1,42.1,93,29.75,5.0,West,19.6,27.6,0.04,Rain,Light Rain,280,2013-04-24 19:53:00
3:57 PM,42.8,39.2,87,29.74,2.5,WNW,18.4,29.9,0.01,Rain,Light Rain,300,2013-04-24 19:57:00
4:05 PM,39.2,37.4,93,29.76,1.5,WNW,12.7,29.9,0.03,Rain,Light Rain,300,2013-04-24 20:05:00
4:27 PM,37.4,35.6,93,29.78,2.0,WNW,12.7,24.2,0.07,Rain,Light Rain,290,2013-04-24 20:27:00
4:42 PM,37.4,35.6,93,29.78,1.2,WNW,13.8,28.8,0.11,Rain,Rain,300,2013-04-24 20:42:00
4:53 PM,37.0,34.0,89,29.81,3.0,WNW,17.3,29.9,0.12,Rain,Light Rain,290,2013-04-24 20:53:00
4:57 PM,37.4,33.8,87,29.81,2.5,West,15.0,29.9,0.01,Rain,Light Rain,280,2013-04-24 20:57:00
5:08 PM,37.4,33.8,87,29.82,1.8,WNW,12.7,23.0,0.02,Rain,Light Rain,290,2013-04-24 21:08:00
5:11 PM,37.4,33.8,87,29.82,2.0,WNW,11.5,23.0,0.02,Rain,Light Rain,300,2013-04-24 21:11:00
5:28 PM,35.6,33.8,93,29.85,2.0,West,16.1,25.3,0.05,Rain,Light Rain,280,2013-04-24 21:28:00
5:46 PM,35.6,32.0,87,29.86,5.0,WNW,17.3,29.9,0.05,Rain,Light Rain,300,2013-04-24 21:46:00
5:53 PM,36.0,33.1,89,29.89,4.0,WNW,12.7,24.2,0.05,,Overcast,300,2013-04-24 21:53:00
6:07 PM,35.6,33.8,93,29.88,10.0,WNW,15.0,21.9,0.00,,Overcast,290,2013-04-24 22:07:00
6:53 PM,36.0,33.1,89,29.95,10.0,West,9.2,-,0.01,,Overcast,280,2013-04-24 22:53:00
7:04 PM,35.6,33.8,93,29.94,7.0,WNW,11.5,18.4,N/A,,Overcast,290,2013-04-24 23:04:00
7:53 PM,35.1,32.0,89,30.00,10.0,West,13.8,20.7,0.00,,Overcast,280,2013-04-24 23:53:00
8:15 PM,35.6,32.0,87,30.00,8.0,West,9.2,-,N/A,,Overcast,280,2013-04-25 00:15:00
8:34 PM,35.6,32.0,87,30.01,4.0,WNW,8.1,-,0.00,Snow,Light Snow,290,2013-04-25 00:34:00
8:53 PM,35.1,33.1,92,30.04,5.0,West,9.2,-,0.00,,Overcast,280,2013-04-25 00:53:00
9:35 PM,35.6,32.0,87,30.06,10.0,West,9.2,17.3,0.00,,Overcast,280,2013-04-25 01:35:00
9:46 PM,35.6,33.8,93,30.07,6.0,WNW,12.7,19.6,0.01,Snow,Light Snow,290,2013-04-25 01:46:00
9:53 PM,35.1,33.1,92,30.09,3.0,West,9.2,19.6,0.01,Snow,Light Snow,270,2013-04-25 01:53:00
10:02 PM,35.6,33.8,93,30.08,6.0,West,9.2,-,0.00,Snow,Light Snow,280,2013-04-25 02:02:00
10:53 PM,36.0,33.1,89,30.12,7.0,West,12.7,20.7,0.00,Rain,Light Rain,270,2013-04-25 02:53:00
11:12 PM,35.6,33.8,93,30.11,10.0,West,6.9,17.3,0.00,,Overcast,280,2013-04-25 03:12:00
11:20 PM,35.6,33.8,93,30.11,10.0,West,6.9,-,0.00,,Overcast,280,2013-04-25 03:20:00
11:43 PM,35.6,33.8,93,30.12,10.0,WSW,4.6,-,0.00,,Overcast,250,2013-04-25 03:43:00
11:49 PM,35.6,33.8,93,30.12,10.0,WSW,4.6,-,0.00,,Mostly Cloudy,240,2013-04-25 03:49:00
11:53 PM,36.0,33.1,89,30.14,10.0,WSW,6.9,-,0.00,,Mostly Cloudy,250,2013-04-25 03:53:00